[[{"header":{"parameterUnit":"m.s-1","parameterCategory":1,"la1":30.2991,"la2":30.254,"lo1":-89.0895,"lo2":-89.0444,"dy":0.0017,"dx":0.0017,"nx":28,"ny":28,"refTime":"2025-12-04T03:00:00:Z","depth":0,"parameterNumber":2,"parameterNumberName":"U-component_of_WINDS"},"data":[0,0,0,0,0,0,0,0,0,0,0,0,0,0,0,0,0,0,0,0,0,0,0,0,0,0,0,0,0,0,0,0,0,0,0,0,0,0,0,0,0,0,0,0,0,0,0,0,0,0,0,0,0,0,0,0,0,0,0.7649,0.7649,0,0.7622,0.7621,0.7621,0.7604,0.7604,0.7604,0.7604,0.7574,0.7573,0.7572,0,0,0,0,0,0,0,0,0,0,0,0,0,0.7687,0.7686,0.7649,0.7649,0.7649,0.7622,0.7621,0.7621,0.7604,0.7604,0.7604,0.7604,0.7574,0.7573,0.7572,0,0,0,0,0,0,0,0,0,0,0,0,0,0.7666,0.7686,0.765,0.7637,0.7636,0.7622,0.7621,0.7621,0.7604,0.7604,0.7604,0.7604,0.7574,0.7573,0.7572,0.7568,0,0,0.7569,0.7568,0,0,0,0,0,0,0,0,0.7667,0.7665,0.7639,0.7638,0.7636,0.7616,0.7623,0.7603,0.7604,0.7616,0.7604,0.7604,0.7588,0.7586,0.7581,0.7566,0.7565,0.7569,0.7568,0.7567,0.7567,0,0,0,0,0,0,0,0.7669,0.7666,0.7638,0.7639,0.7637,0.7633,0.763,0.762,0.7603,0.7615,0.7614,0.7611,0.7587,0.7582,0.758,0.7564,0.7569,0.7568,0.7567,0.7567,0.7546,0.7546,0,0,0,0,0,0,0.7672,0.7667,0.7639,0.7638,0.7652,0.7632,0.7629,0.7623,0.7603,0.76,0.7611,0.761,0.7584,0.7581,0.7579,0.7572,0.7567,0.7566,0.7566,0.7546,0.7546,0.7546,0,0,0,0,0,0,0.7673,0.767,0.764,0.7652,0.7648,0.7632,0.7625,0.7622,0.7617,0.76,0.7597,0.7609,0.7583,0.758,0.7571,0.7571,0.7566,0.7565,0.7545,0.7546,0.7546,0.756,0,0,0,0,0,0,0.7674,0.767,0.7669,0.7652,0.7647,0.7633,0.7625,0.7622,0.7615,0.7614,0.7597,0.7594,0.7583,0.7573,0.757,0.7569,0.7564,0.7545,0.7546,0.7546,0.7559,0.756,0.7561,0,0,0,0,0,0.7676,0.7673,0.7669,0.7665,0.7645,0.7633,0.7631,0.7619,0.7616,0.7614,0.7603,0.7594,0.7572,0.7572,0.7568,0.7568,0.7545,0.7545,0.7546,0.7559,0.756,0.7561,0,0,0,0,0,0,0.7689,0.7671,0.7665,0.7658,0.7647,0.7631,0.7628,0.7621,0.761,0.7609,0.7595,0.7591,0.7583,0.7574,0.7575,0.7563,0.7558,0.7557,0.7569,0.757,0.7571,0.7573,0.7563,0,0,0,0,0,0.7691,0.7684,0.7668,0.7663,0.7658,0.7644,0.7638,0.763,0.7619,0.7614,0.7602,0.7591,0.7581,0.7575,0.7565,0.7558,0.7554,0.7556,0.7557,0.7558,0.7558,0.7554,0.7555,0.7547,0.7547,0.7547,0,0,0.7695,0.7685,0.7681,0.7665,0.7656,0.7649,0.764,0.7632,0.7626,0.7612,0.7603,0.7594,0.7581,0.7573,0.7568,0.7565,0.756,0.7559,0.756,0.7559,0.7554,0.7555,0.7556,0.7547,0.7547,0.7547,0,0,0.7699,0.769,0.7685,0.7677,0.7664,0.7654,0.7653,0.7638,0.7632,0.7622,0.7612,0.7605,0.7588,0.7579,0.7573,0.7574,0.7566,0.7572,0.7577,0.7573,0.7574,0.7574,0.7575,0.7575,0.7571,0.7571,0.7571,0,0.7706,0.7694,0.7683,0.7676,0.767,0.7658,0.7652,0.7645,0.7629,0.7624,0.7621,0.7601,0.7591,0.7581,0.7582,0.7577,0.7575,0.7573,0.7575,0.7575,0.7576,0.7576,0.7576,0.7572,0.7572,0.7572,0.7572,0,0.7703,0.7695,0.7693,0.7679,0.7672,0.7666,0.7653,0.7648,0.7641,0.7632,0.7623,0.7611,0.7599,0.7596,0.7588,0.7585,0.7583,0.7578,0.7572,0.7577,0.7577,0.7577,0.7573,0.7573,0.7573,0.7572,0,0,0.7713,0.7694,0.7693,0.7687,0.7672,0.7666,0.766,0.7649,0.7644,0.7634,0.7628,0.7615,0.7611,0.7603,0.7595,0.7591,0.7594,0.7586,0.7586,0.7588,0.7589,0.7593,0.7594,0.7589,0.7589,0.7589,0.759,0,0.7714,0.7703,0.7693,0.7684,0.7677,0.7667,0.7661,0.7652,0.7644,0.7636,0.7627,0.7618,0.7613,0.7608,0.7604,0.7594,0.7594,0.7594,0.7583,0.7583,0.7586,0.7594,0.7597,0.7599,0.759,0.759,0.759,0,0.7714,0.7705,0.7697,0.7684,0.768,0.7675,0.7665,0.7658,0.7647,0.7641,0.7634,0.7625,0.7618,0.7614,0.7603,0.7604,0.7599,0.7593,0.7593,0.7591,0.7586,0.7591,0.76,0.76,0.759,0.759,0.759,0,0.7722,0.7708,0.7701,0.7697,0.7681,0.7678,0.7671,0.766,0.7655,0.7645,0.7642,0.7631,0.7626,0.7618,0.7607,0.7605,0.7598,0.7593,0.7593,0.7593,0.7591,0.7591,0.7598,0.7588,0.7588,0.7588,0.7588,0,0.7724,0.7719,0.7705,0.7701,0.7695,0.7684,0.7679,0.7671,0.7662,0.7655,0.7646,0.764,0.7626,0.7619,0.7611,0.7603,0.7601,0.7596,0.7593,0.7596,0.7597,0.7592,0.7592,0.7588,0.7588,0.7588,0.7588,0,0.7732,0.7722,0.7714,0.7701,0.7698,0.7694,0.7682,0.7678,0.767,0.7662,0.766,0.7647,0.7638,0.7627,0.7614,0.7608,0.7602,0.7598,0.7606,0.7604,0.7605,0.7605,0.7609,0.7608,0.76,0.76,0.76,0,0.7734,0.773,0.7717,0.7713,0.7706,0.7699,0.7694,0.7683,0.7678,0.7666,0.7662,0.7653,0.7645,0.7631,0.762,0.7611,0.7607,0.7609,0.7605,0.7608,0.7606,0.7607,0.7606,0.7609,0.761,0.761,0.761,0,0.7738,0.7734,0.7727,0.7718,0.7712,0.7704,0.7696,0.7693,0.768,0.7675,0.7666,0.766,0.7647,0.7638,0.7627,0.762,0.7613,0.7611,0.7611,0.7613,0.7618,0.7615,0.7608,0.7611,0.7611,0.7611,0.7611,0.7611,0.7743,0.7739,0.773,0.7722,0.7715,0.7708,0.7703,0.7695,0.7688,0.7677,0.7671,0.7663,0.7653,0.7638,0.7631,0.7624,0.7621,0.762,0.762,0.762,0.7621,0.762,0.7622,0.7622,0.7622,0.7622,0.7622,0,0.7747,0.774,0.7733,0.7723,0.7717,0.7712,0.7703,0.7698,0.7691,0.7682,0.7675,0.7665,0.7656,0.7645,0.7636,0.7632,0.7629,0.763,0.763,0.7629,0.7624,0.7625,0.7633,0.7633,0.7633,0.7633,0.7633,0.7633,0.7748,0.7741,0.7736,0.7726,0.772,0.7712,0.7707,0.7701,0.7694,0.7684,0.7677,0.767,0.766,0.765,0.7642,0.7639,0.7636,0.7638,0.7634,0.763,0.7629,0.7628,0.7629,0.7638,0.7638,0.764,0.764,0.764]},{"header":{"parameterUnit":"m.s-1","parameterCategory":1,"la1":30.2991,"la2":30.254,"lo1":-89.0895,"lo2":-89.0444,"dy":0.0017,"dx":0.0017,"nx":28,"ny":28,"refTime":"2025-12-04T03:00:00:Z","depth":0,"parameterNumber":3,"parameterNumberName":"V-component_of_WINDS"},"data":[0,0,0,0,0,0,0,0,0,0,0,0,0,0,0,0,0,0,0,0,0,0,0,0,0,0,0,0,0,0,0,0,0,0,0,0,0,0,0,0,0,0,0,0,0,0,0,0,0,0,0,0,0,0,0,0,0,0,-3.2156,-3.2157,0,-3.2257,-3.2258,-3.2259,-3.2233,-3.2231,-3.2229,-3.2227,-3.233,-3.2334,-3.2339,0,0,0,0,0,0,0,0,0,0,0,0,0,-3.194,-3.1944,-3.2156,-3.2157,-3.2158,-3.2257,-3.2258,-3.2259,-3.2233,-3.2231,-3.2229,-3.2226,-3.2328,-3.2334,-3.2339,0,0,0,0,0,0,0,0,0,0,0,0,0,-3.2037,-3.1946,-3.2156,-3.2157,-3.2159,-3.2256,-3.2258,-3.226,-3.2234,-3.2231,-3.2228,-3.2225,-3.2326,-3.2333,-3.234,-3.2442,0,0,-3.2361,-3.2364,0,0,0,0,0,0,0,0,-3.2031,-3.2045,-3.2156,-3.2157,-3.2159,-3.2229,-3.2219,-3.2321,-3.2235,-3.2205,-3.2227,-3.2224,-3.2299,-3.2308,-3.2333,-3.2447,-3.2451,-3.2361,-3.2366,-3.2368,-3.237,0,0,0,0,0,0,0,-3.2025,-3.204,-3.2196,-3.2158,-3.2159,-3.2153,-3.2163,-3.2239,-3.2267,-3.2208,-3.2206,-3.2218,-3.2299,-3.2326,-3.2335,-3.2453,-3.2361,-3.2367,-3.2372,-3.2374,-3.2655,-3.2658,0,0,0,0,0,0,-3.2017,-3.2035,-3.2193,-3.2199,-3.2086,-3.2159,-3.2171,-3.221,-3.2267,-3.2272,-3.2221,-3.2217,-3.2316,-3.2327,-3.2339,-3.2462,-3.2368,-3.2375,-3.2379,-3.2651,-3.2655,-3.2659,0,0,0,0,0,0,-3.2012,-3.2031,-3.2189,-3.2116,-3.2136,-3.2166,-3.221,-3.2213,-3.2241,-3.2277,-3.2281,-3.2244,-3.2314,-3.2329,-3.2416,-3.2465,-3.2378,-3.2384,-3.2647,-3.2653,-3.2657,-3.2709,0,0,0,0,0,0,-3.2006,-3.203,-3.2069,-3.2118,-3.214,-3.2265,-3.2213,-3.2217,-3.2253,-3.2249,-3.2299,-3.2305,-3.2313,-3.2406,-3.2423,-3.2473,-3.239,-3.2643,-3.265,-3.2656,-3.2703,-3.2715,-3.2726,0,0,0,0,0,-3.1999,-3.2079,-3.2071,-3.209,-3.219,-3.2268,-3.2281,-3.2289,-3.2257,-3.2297,-3.2319,-3.2303,-3.2457,-3.2415,-3.2434,-3.2487,-3.264,-3.2648,-3.2655,-3.2698,-3.2713,-3.2725,0,0,0,0,0,0,-3.2036,-3.2086,-3.2077,-3.2176,-3.2218,-3.2263,-3.2314,-3.2304,-3.2356,-3.2349,-3.2357,-3.2369,-3.2458,-3.2481,-3.2434,-3.2588,-3.2544,-3.2556,-3.257,-3.2585,-3.2595,-3.2588,-3.2395,0,0,0,0,0,-3.2055,-3.2115,-3.2155,-3.2239,-3.226,-3.2284,-3.2318,-3.232,-3.2364,-3.2381,-3.2411,-3.2453,-3.2511,-3.2549,-3.2604,-3.2706,-3.2717,-3.2752,-3.2763,-3.2772,-3.2782,-3.2838,-3.2854,-3.2684,-3.2684,-3.2683,0,0,-3.2097,-3.2131,-3.2169,-3.2247,-3.228,-3.2341,-3.2299,-3.2365,-3.2411,-3.2391,-3.2476,-3.2499,-3.2547,-3.2642,-3.2685,-3.2664,-3.2831,-3.2782,-3.2788,-3.2794,-3.2847,-3.2863,-3.2877,-3.2689,-3.2688,-3.2687,0,0,-3.2203,-3.2236,-3.2309,-3.2342,-3.2393,-3.2407,-3.2425,-3.2472,-3.2487,-3.2572,-3.2558,-3.2612,-3.2712,-3.2747,-3.2777,-3.2897,-3.2884,-3.2915,-3.2973,-3.3028,-3.3041,-3.3053,-3.3096,-3.3111,-3.2924,-3.2925,-3.2925,0,-3.2248,-3.234,-3.2347,-3.2416,-3.245,-3.2436,-3.251,-3.2542,-3.2608,-3.2632,-3.2607,-3.2732,-3.2763,-3.2866,-3.2895,-3.2921,-3.2941,-3.2909,-3.3038,-3.305,-3.3062,-3.3103,-3.3119,-3.2928,-3.2928,-3.2927,-3.2927,0,-3.2393,-3.2457,-3.251,-3.2574,-3.2615,-3.2686,-3.2703,-3.2743,-3.2742,-3.276,-3.2846,-3.2883,-3.2946,-3.297,-3.297,-3.3074,-3.3059,-3.3036,-3.2992,-3.3081,-3.312,-3.3135,-3.2933,-3.2932,-3.2931,-3.293,0,0,-3.2526,-3.2593,-3.2612,-3.2641,-3.2696,-3.2745,-3.2815,-3.2876,-3.2911,-3.2956,-3.3015,-3.3099,-3.3079,-3.3114,-3.3117,-3.3165,-3.3257,-3.3136,-3.3137,-3.3157,-3.3374,-3.339,-3.3409,-3.3249,-3.3252,-3.3254,-3.337,0,-3.2638,-3.2761,-3.2769,-3.2881,-3.294,-3.2927,-3.2988,-3.3027,-3.3045,-3.3098,-3.3118,-3.3178,-3.3146,-3.3167,-3.3213,-3.3236,-3.3301,-3.3228,-3.3303,-3.3306,-3.3292,-3.3429,-3.3447,-3.3554,-3.3385,-3.3387,-3.3389,0,-3.2784,-3.2835,-3.2952,-3.2998,-3.3023,-3.3077,-3.3134,-3.3185,-3.3229,-3.3239,-3.3278,-3.3275,-3.3346,-3.3299,-3.3397,-3.3347,-3.3379,-3.3395,-3.3399,-3.3406,-3.3353,-3.344,-3.3588,-3.3604,-3.3413,-3.3411,-3.3409,0,-3.2869,-3.2967,-3.3049,-3.3074,-3.313,-3.3169,-3.3193,-3.3235,-3.3271,-3.3321,-3.3345,-3.3402,-3.3433,-3.3477,-3.3489,-3.3454,-3.3587,-3.3541,-3.3597,-3.3597,-3.3626,-3.3624,-3.3782,-3.3646,-3.3646,-3.3646,-3.3645,0,-3.2993,-3.3065,-3.3088,-3.3139,-3.322,-3.3229,-3.3308,-3.333,-3.3368,-3.3423,-3.3415,-3.3466,-3.3479,-3.3533,-3.3543,-3.3623,-3.3637,-3.3647,-3.3648,-3.3648,-3.3646,-3.3668,-3.3661,-3.365,-3.3649,-3.3648,-3.3648,0,-3.3102,-3.312,-3.321,-3.3255,-3.3268,-3.3326,-3.3364,-3.3413,-3.343,-3.3499,-3.3516,-3.3543,-3.3606,-3.3622,-3.3698,-3.3704,-3.3798,-3.3793,-3.3784,-3.3783,-3.3839,-3.3834,-3.4016,-3.4041,-3.3889,-3.389,-3.3891,0,-3.318,-3.3235,-3.3287,-3.3323,-3.335,-3.3408,-3.3445,-3.3456,-3.3495,-3.355,-3.3592,-3.3654,-3.3705,-3.3806,-3.3832,-3.3889,-3.3885,-3.3945,-3.3894,-3.3891,-3.3887,-3.3883,-3.3889,-3.3955,-3.3957,-3.3958,-3.3959,0,-3.3316,-3.3322,-3.3376,-3.3434,-3.3478,-3.3524,-3.3568,-3.3598,-3.3614,-3.3658,-3.3723,-3.3762,-3.3839,-3.3901,-3.3959,-3.3984,-3.3975,-3.3975,-3.3991,-3.3991,-3.3984,-3.3989,-3.3811,-3.3971,-3.397,-3.3969,-3.3968,-3.3968,-3.3412,-3.3461,-3.3504,-3.3565,-3.3599,-3.364,-3.3688,-3.3711,-3.3765,-3.3829,-3.3832,-3.3902,-3.3945,-3.4022,-3.4051,-3.4105,-3.4087,-3.4111,-3.4117,-3.4122,-3.4127,-3.3975,-3.4116,-3.4116,-3.4115,-3.4115,-3.4115,0,-3.3548,-3.3575,-3.3631,-3.3692,-3.374,-3.3727,-3.3774,-3.3815,-3.3877,-3.3918,-3.3968,-3.4042,-3.4102,-3.4133,-3.4192,-3.423,-3.4227,-3.4245,-3.4243,-3.4249,-3.414,-3.412,-3.4247,-3.4247,-3.4247,-3.4247,-3.4247,-3.4247,-3.3624,-3.3706,-3.3717,-3.3816,-3.3843,-3.3912,-3.394,-3.3978,-3.4011,-3.4094,-3.4144,-3.4163,-3.42,-3.4262,-3.4317,-3.4324,-3.4346,-3.4367,-3.4372,-3.427,-3.4256,-3.4244,-3.4225,-3.4372,-3.4372,-3.4476,-3.4477,-3.4478]}]]